Tracking 19706 objects as of 17-Jun-2019
HD Live streaming from Space Station
objects crossing your sky now

SL-14 DEB

Track SL-14 DEB now!
10-day predictions


NORAD ID: 39980
Int'l Code: 1987-068DG
Perigee: 426.1 km
Apogee: 437.3 km
Inclination: 82.5 °
Period: 93.1 minutes
Semi major axis: 6802 km
RCS: Unknown
Launch date: August 18, 1987
Source: Commonwealth of Independent States (former USSR) (CIS)
Launch site: PLESETSK MISSILE AND SPACE COMPLEX (PKMTR)

Note: This is SATELLITE DEBRIS
aabbcc
Your satellite tracking list
Your tracking list is empty




NASA's NSSDC Master Catalog

Two Line Element Set (TLE):
1 39980U 87068DG  19166.64554906  .00090733  00000-0  17589-2 0  9994
2 39980  82.4957 296.4210 0008224 243.2317 116.8091 15.47307929295445
Source of the keplerian elements: AFSPC